TimeMDT,TemperatureF,Dew PointF,Humidity,Sea Level PressureIn,VisibilityMPH,Wind Direction,Wind SpeedMPH,Gust SpeedMPH,PrecipitationIn,Events,Conditions,WindDirDegrees,DateUTC
12:39 AM,24.8,21.2,86,30.59,10.0,South,6.9,-,N/A,,Overcast,190,2013-05-02 06:39:00
12:48 AM,24.8,21.2,86,30.59,10.0,South,5.8,-,N/A,,Overcast,180,2013-05-02 06:48:00
12:53 AM,24.1,21.9,91,30.66,10.0,South,6.9,-,N/A,,Overcast,180,2013-05-02 06:53:00
1:53 AM,24.1,21.9,91,30.66,10.0,SW,3.5,-,N/A,,Overcast,220,2013-05-02 07:53:00
2:07 AM,24.8,21.2,86,30.60,10.0,West,3.5,-,N/A,,Overcast,260,2013-05-02 08:07:00
2:53 AM,24.1,21.9,91,30.66,10.0,West,4.6,-,N/A,,Overcast,280,2013-05-02 08:53:00
3:04 AM,24.8,21.2,86,30.61,10.0,West,5.8,-,N/A,,Overcast,280,2013-05-02 09:04:00
3:37 AM,24.8,21.2,86,30.60,10.0,WSW,3.5,-,N/A,,Overcast,250,2013-05-02 09:37:00
3:53 AM,21.9,19.9,92,30.68,10.0,West,5.8,-,N/A,,Mostly Cloudy,280,2013-05-02 09:53:00
4:00 AM,23.0,21.2,93,30.61,10.0,West,4.6,-,N/A,,Overcast,280,2013-05-02 10:00:00
4:08 AM,23.0,21.2,93,30.61,10.0,WNW,4.6,-,N/A,,Overcast,290,2013-05-02 10:08:00
4:24 AM,23.0,21.2,93,30.62,10.0,West,4.6,-,N/A,,Overcast,270,2013-05-02 10:24:00
4:53 AM,23.0,21.9,96,30.70,10.0,WSW,5.8,-,N/A,,Overcast,250,2013-05-02 10:53:00
5:10 AM,23.0,21.2,93,30.62,10.0,WSW,3.5,-,N/A,,Overcast,250,2013-05-02 11:10:00
5:53 AM,24.1,19.9,84,30.71,10.0,Calm,Calm,-,N/A,,Overcast,0,2013-05-02 11:53:00
6:53 AM,24.1,19.0,81,30.72,10.0,Calm,Calm,-,N/A,,Overcast,0,2013-05-02 12:53:00
7:53 AM,24.1,19.9,84,30.74,10.0,Calm,Calm,-,N/A,,Overcast,0,2013-05-02 13:53:00
8:53 AM,24.1,19.0,81,30.76,10.0,West,3.5,-,N/A,,Overcast,270,2013-05-02 14:53:00
9:53 AM,25.0,19.9,81,30.79,10.0,Variable,3.5,-,N/A,,Overcast,0,2013-05-02 15:53:00
10:43 AM,26.6,21.2,80,30.65,10.0,South,4.6,-,N/A,,Scattered Clouds,180,2013-05-02 16:43:00
10:53 AM,27.0,21.0,78,30.76,10.0,South,4.6,-,N/A,,Clear,170,2013-05-02 16:53:00
11:53 AM,30.0,21.0,69,30.71,10.0,Calm,Calm,-,N/A,,Clear,0,2013-05-02 17:53:00
12:53 PM,34.0,18.0,52,30.67,10.0,SE,4.6,-,N/A,,Clear,130,2013-05-02 18:53:00
1:53 PM,37.9,19.0,47,30.62,10.0,Variable,3.5,-,N/A,,Clear,0,2013-05-02 19:53:00
2:53 PM,39.0,21.0,49,30.58,10.0,SW,5.8,-,N/A,,Clear,230,2013-05-02 20:53:00
3:53 PM,45.0,19.0,36,30.52,10.0,Calm,Calm,-,N/A,,Clear,0,2013-05-02 21:53:00
4:53 PM,46.9,23.0,39,30.47,10.0,Variable,4.6,-,N/A,,Clear,0,2013-05-02 22:53:00
5:53 PM,48.9,21.9,35,30.44,10.0,South,4.6,-,N/A,,Clear,170,2013-05-02 23:53:00
6:53 PM,48.0,24.1,39,30.43,10.0,South,5.8,-,N/A,,Clear,180,2013-05-03 00:53:00
7:53 PM,46.0,26.1,46,30.43,10.0,Calm,Calm,-,N/A,,Clear,0,2013-05-03 01:53:00
8:53 PM,37.0,27.0,67,30.46,10.0,North,6.9,-,N/A,,Clear,350,2013-05-03 02:53:00
9:53 PM,33.1,24.1,70,30.48,10.0,North,11.5,-,N/A,,Clear,350,2013-05-03 03:53:00
10:53 PM,30.0,21.9,72,30.48,10.0,NW,5.8,-,N/A,,Clear,320,2013-05-03 04:53:00
11:53 PM,30.9,18.0,59,30.45,10.0,Calm,Calm,-,N/A,,Clear,0,2013-05-03 05:53:00